Location: Unspecified
(48.8656°N, 0.0000°E)
Time: 06:24:01
(UTC+00:00)

SR - Pass Details

Date: 04 July 2019
Orbit: 575 x 881 km, 66.7° (Epoch: 12 October)

Event Time Altitude Azimuth Distance (km) Brightness Sun altitude
Rises 00:00:43 0° 179° (S) 2,772 - -18.2°
Reaches altitude 10° 00:03:13 10° 165° (SSE) 1,881 - -18.2°
Exits shadow 00:06:01 23° 124° (SE) 1,260 ? -18.2°
Maximum altitude 00:06:35 24° 112° (ESE) 1,242 ? -18.2°
Drops below altitude 10° 00:10:02 10° 59° (ENE) 1,944 ? -18.2°
Sets 00:12:40 0° 45° (NE) 2,890 ? -18.2°
